Air Resources Laboratory banner image
Air Resources Laboratory web site National Oceanic and Atmospheric Administration (NOAA)

nd roundup


Office: BIS

ASUS43 KBIS 221002
RWRBIS

NWR BROADCAST TEXT
NATIONAL WEATHER SERVICE BISMARCK ND
500 AM CDT FRI JUN 22 2018

NOTE: "FAIR" INDICATES FEW OR NO CLOUDS BELOW 12,000 FEET WITH NO
SIGNIFICANT WEATHER AND/OR OBSTRUCTIONS TO VISIBILITY.


CITY           SKY/WX    TMP DP  RH WIND       PRES   REMARKS
WILLISTON      PTCLDY    62  53  72 N3        29.82F
MINOT          CLEAR     62  54  74 CALM      29.87S
MINOT AFB      CLEAR     60  55  81 SW6       29.85F
BISMARCK       CLEAR     57  54  89 E7        29.91S
DICKINSON      PTCLDY    55  53  93 SE9       29.87F
GARRISON         N/A     58  54  86 CALM      29.88F
HETTINGER ARPT MOCLDY    56  53  90 E5        29.92F
JAMESTOWN      CLOUDY    65  61  87 CALM      29.88F
CARRINGTON     FAIR      66  61  82 W3        29.91F
HAZEN            N/A     61  55  82 S9        29.90F
LINTON           N/A     57  57 100 E6        29.92F
MANDAN         FAIR      59  57  94 SW5       29.91F
OAKES          PTSUNNY   59  59 100 SE7       29.90F
RUGBY          FAIR      63  59  88 CALM      29.88F
STANLEY          N/A     59  59 100 CALM      29.90S
TIOGA          FAIR      57  57 100 E3        29.87F
WATFORD CITY   FAIR      59  54  82 SE13      29.81F
$$

CITY           SKY/WX    TMP DP  RH WIND       PRES   REMARKS
GRAND FORKS    FAIR      64  61  90 S3        29.86S
GRAND FORKS AF FAIR      62  59  90 SW3       29.87S
DEVILS LAKE    NOT AVBL
FARGO          FAIR      66  60  81 SE6       29.88F
CANDO          FAIR      66  66 100 CALM      29.91S
CAVALIER       FAIR      61  61 100 CALM      29.86S
GRAFTON        FAIR      63  61  94 CALM      29.88S
GWINNER          N/A     63  61  94 CALM      29.90S
LANGDON        FAIR      64  64 100 CALM      29.90S
ROLLA          FAIR      64  57  77 CALM      29.91S
WALHALLA       FAIR      64  64 100 CALM      29.86S
$$

CITY           SKY/WX    TMP DP  RH WIND       PRES   REMARKS
ABERDEEN       PTCLDY    61  60  97 SE7       29.90F
MOBRIDGE       CLEAR     59  55  87 E5        29.88F
BUFFALO          N/A     62  52  69 E9        29.83S
RAPID CITY     PTCLDY    59  52  77 SE6       29.93R
GLASGOW        LGT RAIN  65  59  81 W7        29.80S
SIDNEY         MOCLDY    58  55  90 S7        29.81F
WOLF POINT     PTCLDY    57  53  86 CALM      29.79F
GLENDIVE       LGT RAIN  61  58  90 SE6       29.83F
MILES CITY     CLOUDY    59  32  36 S6        29.86S
BAKER          MOCLDY    58  58 100 CALM      29.88S
$$

CITY           SKY/WX    TMP DP  RH WIND       PRES   REMARKS
BILLINGS       CLOUDY    57  52  83 SW9       29.92S
GREAT FALLS    MOCLDY    58  52  80 SW12      29.92S
$$



ASUS43 KBIS 221002
RWRND

NORTH DAKOTA REGIONAL WEATHER ROUNDUP
NATIONAL WEATHER SERVICE BISMARCK ND
500 AM CDT FRI JUN 22 2018

NOTE: "FAIR" INDICATES FEW OR NO CLOUDS BELOW 12,000 FEET WITH NO
SIGNIFICANT WEATHER AND/OR OBSTRUCTIONS TO VISIBILITY.


NDZ001>003-009>011-017-221100-
NORTHWEST NORTH DAKOTA

CITY           SKY/WX    TMP DP  RH WIND       PRES   REMARKS
WILLISTON      PTCLDY    62  53  72 N3        29.82F
MINOT          CLEAR     62  54  74 CALM      29.87S
MINOT AFB      CLEAR     60  55  81 SW6       29.85F
$$

NDZ018>021-031>035-040>046-221100-
SOUTHWEST NORTH DAKOTA

CITY           SKY/WX    TMP DP  RH WIND       PRES   REMARKS
BISMARCK       CLEAR     57  54  89 E7        29.91S
DICKINSON      PTCLDY    55  53  93 SE9       29.87F
GARRISON         N/A     58  54  86 CALM      29.88F
HETTINGER ARPT MOCLDY    56  53  90 E5        29.92F
$$

NDZ004>008-012>016-024-026-027-054-221100-
NORTHEAST NORTH DAKOTA

CITY           SKY/WX    TMP DP  RH WIND       PRES   REMARKS
GRAND FORKS    FAIR      64  61  90 S3        29.86S
GRND FRKS AFB  FAIR      62  59  90 SW3       29.87S
$$

NDZ022-023-025-028>030-036>039-047>053-221100-
SOUTHEAST NORTH DAKOTA

CITY           SKY/WX    TMP DP  RH WIND       PRES   REMARKS
FARGO          FAIR      66  60  81 SE6       29.88F
JAMESTOWN      CLOUDY    65  61  87 CALM      29.88F
$$



ASUS43 KBIS 221010
RWRBIS

NWR BROADCAST TEXT
NATIONAL WEATHER SERVICE BISMARCK ND
500 AM CDT FRI JUN 22 2018

NOTE: "FAIR" INDICATES FEW OR NO CLOUDS BELOW 12,000 FEET WITH NO
SIGNIFICANT WEATHER AND/OR OBSTRUCTIONS TO VISIBILITY.


CITY           SKY/WX    TMP DP  RH WIND       PRES   REMARKS
WILLISTON      PTCLDY    62  53  72 N3        29.82F
MINOT          CLEAR     62  54  74 CALM      29.87S
MINOT AFB      CLEAR     60  55  81 SW6       29.85F
BISMARCK       CLEAR     57  54  89 E7        29.91S
DICKINSON      PTCLDY    55  53  93 SE9       29.87F
GARRISON         N/A     58  54  86 CALM      29.88F
HETTINGER ARPT MOCLDY    56  53  90 E5        29.92F
JAMESTOWN      CLOUDY    65  61  87 CALM      29.88F
CARRINGTON     FAIR      66  61  82 W3        29.91F
HAZEN            N/A     61  55  82 S9        29.90F
LINTON           N/A     57  57 100 E6        29.92F
MANDAN         FAIR      59  57  94 SW5       29.91F
OAKES          PTSUNNY   59  59 100 SE7       29.90F
RUGBY          FAIR      63  59  88 CALM      29.88F
STANLEY          N/A     59  59 100 CALM      29.90S
TIOGA          FAIR      57  57 100 E3        29.87F
WATFORD CITY   FAIR      59  54  82 SE13      29.81F
$$

CITY           SKY/WX    TMP DP  RH WIND       PRES   REMARKS
GRAND FORKS    FAIR      64  61  90 S3        29.86S
GRAND FORKS AF FAIR      62  59  90 SW3       29.87S
DEVILS LAKE    NOT AVBL
FARGO          FAIR      66  60  81 SE6       29.88F
CANDO          FAIR      66  66 100 CALM      29.91S
CAVALIER       FAIR      61  61 100 CALM      29.86S
GRAFTON        FAIR      63  61  94 CALM      29.88S
GWINNER          N/A     63  61  94 CALM      29.90S
LANGDON        FAIR      64  64 100 CALM      29.90S
ROLLA          FAIR      64  57  77 CALM      29.91S
WALHALLA       FAIR      64  64 100 CALM      29.86S
$$

CITY           SKY/WX    TMP DP  RH WIND       PRES   REMARKS
ABERDEEN       PTCLDY    61  60  97 SE7       29.90F
MOBRIDGE       CLEAR     59  55  87 E5        29.88F
BUFFALO          N/A     62  52  69 E9        29.83S
RAPID CITY     PTCLDY    59  52  77 SE6       29.93R
GLASGOW        LGT RAIN  65  59  81 W7        29.80S
SIDNEY         MOCLDY    58  55  90 S7        29.81F
WOLF POINT     PTCLDY    57  53  86 CALM      29.79F
GLENDIVE       LGT RAIN  61  58  90 SE6       29.83F
MILES CITY     CLOUDY    59  32  36 S6        29.86S
BAKER          MOCLDY    58  58 100 CALM      29.88S
$$

CITY           SKY/WX    TMP DP  RH WIND       PRES   REMARKS
BILLINGS       CLOUDY    57  52  83 SW9       29.92S
GREAT FALLS    MOCLDY    58  52  80 SW12      29.92S
REGINA         PTCLDY    61  54  77 SE9       29.82F
ESTEVAN        PTCLDY    61  55  82 SE6       29.83F
$$



ASUS43 KBIS 221010
RWRND

NORTH DAKOTA REGIONAL WEATHER ROUNDUP
NATIONAL WEATHER SERVICE BISMARCK ND
500 AM CDT FRI JUN 22 2018

NOTE: "FAIR" INDICATES FEW OR NO CLOUDS BELOW 12,000 FEET WITH NO
SIGNIFICANT WEATHER AND/OR OBSTRUCTIONS TO VISIBILITY.


NDZ001>003-009>011-017-221100-
NORTHWEST NORTH DAKOTA

CITY           SKY/WX    TMP DP  RH WIND       PRES   REMARKS
WILLISTON      PTCLDY    62  53  72 N3        29.82F
MINOT          CLEAR     62  54  74 CALM      29.87S
MINOT AFB      CLEAR     60  55  81 SW6       29.85F
$$

NDZ018>021-031>035-040>046-221100-
SOUTHWEST NORTH DAKOTA

CITY           SKY/WX    TMP DP  RH WIND       PRES   REMARKS
BISMARCK       CLEAR     57  54  89 E7        29.91S
DICKINSON      PTCLDY    55  53  93 SE9       29.87F
GARRISON         N/A     58  54  86 CALM      29.88F
HETTINGER ARPT MOCLDY    56  53  90 E5        29.92F
$$

NDZ004>008-012>016-024-026-027-054-221100-
NORTHEAST NORTH DAKOTA

CITY           SKY/WX    TMP DP  RH WIND       PRES   REMARKS
GRAND FORKS    FAIR      64  61  90 S3        29.86S
GRND FRKS AFB  FAIR      62  59  90 SW3       29.87S
$$

NDZ022-023-025-028>030-036>039-047>053-221100-
SOUTHEAST NORTH DAKOTA

CITY           SKY/WX    TMP DP  RH WIND       PRES   REMARKS
FARGO          FAIR      66  60  81 SE6       29.88F
JAMESTOWN      CLOUDY    65  61  87 CALM      29.88F
$$



ASUS43 KBIS 221010
RWRND
NORTH DAKOTA REGIONAL WEATHER ROUNDUP
NATIONAL WEATHER SERVICE EASTERN NORTH DAKOTA/GRAND FORKS ND
500 AM CDT FRI JUN 22 2018

  NOTE: "FAIR" INDICATES FEW OR NO CLOUDS BELOW 12,000 FEET WITH NO
  SIGNIFICANT WEATHER AND/OR OBSTRUCTIONS TO VISIBILITY.

NDZ001>003-009>011-017-221100-
...NORTHWEST NORTH DAKOTA...

CITY           SKY/WX    TMP DP  RH WIND       PRES   REMARKS
WILLISTON      FAIR      62  53  72 N3        29.82F
MINOT          FAIR      62  54  74 CALM      29.87S
MINOT AFB      FAIR      60  55  81 SW6       29.85F
$$

NDZ018>021-031>035-040>046-221100-
...SOUTHWEST NORTH DAKOTA...

CITY           SKY/WX    TMP DP  RH WIND       PRES   REMARKS
BISMARCK       FAIR      57  54  89 E7        29.91S
DICKINSON      FAIR      55  53  93 SE9       29.87F
GARRISON         N/A     58  54  86 CALM      29.88F
HETTINGER      FAIR      56  53  90 E5        29.92F
$$

NDZ004>008-012>016-024-026-027-054-221100-
...NORTHEAST NORTH DAKOTA...

CITY           SKY/WX    TMP DP  RH WIND       PRES   REMARKS
GRAND FORKS    FAIR      64  61  90 S3        29.86S
GRAND FORKS AF FAIR      62  59  90 SW3       29.87S
DEVILS LAKE    NOT AVBL
$$

NDZ022-023-025-028>030-036>039-047>053-221100-
...SOUTHEAST NORTH DAKOTA...

CITY           SKY/WX    TMP DP  RH WIND       PRES   REMARKS
JAMESTOWN      FAIR      65  61  87 CALM      29.88F
FARGO          FAIR      66  60  81 SE6       29.88F
WAHPETON       FAIR      64  57  77 SE3       29.91S
$$


ASUS43 KBIS 221031
RWRND
NORTH DAKOTA REGIONAL WEATHER ROUNDUP
NATIONAL WEATHER SERVICE EASTERN NORTH DAKOTA/GRAND FORKS ND
500 AM CDT FRI JUN 22 2018

  NOTE: "FAIR" INDICATES FEW OR NO CLOUDS BELOW 12,000 FEET WITH NO
  SIGNIFICANT WEATHER AND/OR OBSTRUCTIONS TO VISIBILITY.

NDZ001>003-009>011-017-221100-
...NORTHWEST NORTH DAKOTA...

CITY           SKY/WX    TMP DP  RH WIND       PRES   REMARKS
WILLISTON      FAIR      62  53  72 N3        29.82F
MINOT          FAIR      62  54  74 CALM      29.87S
MINOT AFB      FAIR      60  55  81 SW6       29.85F
$$

NDZ018>021-031>035-040>046-221100-
...SOUTHWEST NORTH DAKOTA...

CITY           SKY/WX    TMP DP  RH WIND       PRES   REMARKS
BISMARCK       FAIR      57  54  89 E7        29.91S
DICKINSON      FAIR      55  53  93 SE9       29.87F
GARRISON         N/A     58  54  86 CALM      29.88F
HETTINGER      FAIR      56  53  90 E5        29.92F
$$

NDZ004>008-012>016-024-026-027-054-221100-
...NORTHEAST NORTH DAKOTA...

CITY           SKY/WX    TMP DP  RH WIND       PRES   REMARKS
GRAND FORKS    FAIR      64  61  90 S3        29.86S
GRAND FORKS AF FAIR      62  59  90 SW3       29.87S
DEVILS LAKE    NOT AVBL
$$

NDZ022-023-025-028>030-036>039-047>053-221100-
...SOUTHEAST NORTH DAKOTA...

CITY           SKY/WX    TMP DP  RH WIND       PRES   REMARKS
JAMESTOWN      FAIR      65  61  87 CALM      29.88F
FARGO          FAIR      66  60  81 SE6       29.88F
WAHPETON       FAIR      64  59  82 CALM      29.91S
$$




Office: FGF ASUS43 KFGF 221010 RWRFGF PRAIRIE TO PINES WEATHER ROUNDUP NATIONAL WEATHER SERVICE EASTERN NORTH DAKOTA/GRAND FORKS ND 500 AM CDT FRI JUN 22 2018 **SATELLITE DATA USED TO AUGMENT SKY COVER AT AUTOMATED STATIONS** ***** WEATHER ACROSS EASTERN NORTH DAKOTA ***** CITY SKY/WX TMP DP RH WIND PRES REMARKS GRAND FORKS FAIR 64 61 90 S3 29.86S GRAND FRKS AFB FAIR 62 59 90 SW3 29.87S DEVILS LAKE NOT AVBL FARGO FAIR 66 60 81 SE6 29.88F WAHPETON ARPT FAIR 64 57 77 SE3 29.91S $$ ***** WEATHER ACROSS CENTRAL AND WESTERN NORTH DAKOTA ***** CITY SKY/WX TMP DP RH WIND PRES REMARKS BISMARCK FAIR 57 54 89 E7 29.91S MINOT FAIR 62 54 74 CALM 29.87S JAMESTOWN FAIR 65 61 87 CALM 29.88F MINOT AFB FAIR 60 55 81 SW6 29.85F GARRISON N/A 58 54 86 CALM 29.88F WILLISTON FAIR 62 53 72 N3 29.82F DICKINSON FAIR 55 53 93 SE9 29.87F HETTINGER FAIR 56 53 90 E5 29.92F $$ ***** OTHER AIRPORT OBSERVATIONS IN OUR AREA ***** CITY SKY/WX TMP DP RH WIND PRES REMARKS WALHALLA FAIR 64 64 100 CALM 29.86S GRAFTON AIRPOR FAIR 63 61 94 CALM 29.88S VALLEY CITY AR FAIR 61 63 100 CALM 29.91S CANDO FAIR 66 66 100 CALM 29.91S CAVALIER APRT FAIR 61 61 100 CALM 29.86S GWINNER N/A 63 61 94 CALM 29.90S SHEYENNE NWR N/A 62 60 92 CALM 29.95 ROLLA FAIR 64 57 77 CALM 29.91S ***** THE ABOVE OBSERVATIONS ARE NON NWS ARE NOT QUALITY CONTROLLED AND MAY MIS-REPORT RAIN FOR SNOW... $$ ***** WEATHER ACROSS NORTHERN MINNESOTA ***** CITY SKY/WX TMP DP RH WIND PRES REMARKS FLAG ISLAND CLOUDY 70 63 78 CALM 29.87R WARROAD FAIR 64 61 88 S3 29.88F ROSEAU FAIR 64 61 88 CALM 29.88S HALLOCK FAIR 63 59 88 SE5 29.86S THF RVR FALLS NOT AVBL BAUDETTE FAIR 63 59 87 CALM 29.89S WASKISH FAIR 61 57 88 CALM 29.91S CROOKSTON FAIR 64 61 88 S7 29.89R STEPHEN NDAWN N/A N/A N/A N/A SE3 N/A GREENBUSH NDAW N/A 61 59 94 SE2 N/A $$ ***** WEATHER ACROSS CENTRAL AND WEST MINNESOTA ***** CITY SKY/WX TMP DP RH WIND PRES REMARKS FOSSTON FAIR 63 57 82 S5 29.92S BEMIDJI FAIR 62 58 88 S3 29.93S PARK RAPIDS FAIR 62 57 83 CALM 29.94S ELBOW LAKE FAIR 64 56 77 SE5 29.93S WADENA FAIR 55 55 100 CALM 29.93F DETROIT LAKES FAIR 63 61 94 CALM 29.94S MOORHEAD FAIR 64 61 88 S6 29.90S FERGUS FALLS FAIR 66 61 82 CALM 29.93S MORRIS MN FAIR 63 57 82 CALM 29.91S STAPLES FAIR 57 55 94 CALM 29.94S $$ ***** WEATHER ELSEWHERE ACROSS MINNESOTA ***** CITY SKY/WX TMP DP RH WIND PRES REMARKS DULUTH FAIR 50 46 86 CALM 29.94R INTRNTL FALLS FAIR 58 57 97 SW5 29.91S ELY FAIR 52 48 87 CALM 29.94R CLOQUET FAIR 48 45 87 NW3 29.95R WHEATON FAIR 63 57 82 SE3 29.92S BRAINERD FAIR 54 50 86 CALM 29.94S HIBBING FAIR 47 46 97 CALM 29.95R ALEXANDRIA FAIR 62 54 74 E6 29.94F SAINT CLOUD FAIR 56 54 93 CALM 29.92S MINNEAPOLIS CLOUDY 64 63 96 CALM 29.90S $$ ***** WEATHER ACROSS SOUTH DAKOTA ***** CITY SKY/WX TMP DP RH WIND PRES REMARKS SIOUX FALLS MOCLDY 57 56 96 CALM 29.94F BROOKINGS NOT AVBL WATERTOWN FAIR 61 60 97 CALM 29.93S HURON FAIR 59 57 93 CALM 29.91F SISSETON N/A 67 59 75 W5 29.90S ABERDEEN FAIR 61 60 97 SE7 29.90F MITCHELL FAIR 63 58 83 SW6 29.92F PIERRE FAIR 57 57 100 E7 29.88F MOBRIDGE FAIR 59 55 87 E5 29.88F RAPID CITY FAIR 59 52 77 SE6 29.93R $$ ***** SOME WEATHER IN NEARBY STATES ***** CITY SKY/WX TMP DP RH WIND PRES REMARKS GLASGOW MT LGT RAIN 65 59 81 W7 29.80S GREAT FALLS MT FAIR 58 52 80 SW12 29.92S CHEYENNE WY MOCLDY 57 52 83 S17G24 30.07F SCOTTSBLUFF NE FAIR 56 55 97 E7 29.98F OMAHA NE CLOUDY 63 59 87 N9 29.87F DES MOINES IA CLOUDY 62 58 86 NE9 29.82R DAVENPORT IA LGT RAIN 62 60 93 NE9 29.78S CHICAGO IL LGT RAIN 62 59 90 NE17 29.76S EAU CLAIRE WI FAIR 58 57 97 NE3 29.90R LA CROSSE WI FAIR 62 59 90 NW6 29.87R $$ ***** SOME NATIONAL WEATHER ***** CITY SKY/WX TMP DP RH WIND PRES REMARKS LA GUARDIA NY MOCLDY 68 62 81 E7 29.95R RALEIGH NC FAIR 71 71 100 CALM 29.80R ATLANTA GA MOCLDY 72 68 87 W10 29.89R NEW ORLEANS LA FAIR 78 77 96 SW6 29.92R OKLAHOMA CITY MOCLDY 71 56 58 NE7 29.86R ALBUQUERQUE NM FAIR 74 35 24 W5 30.03R SALT LAKE CITY FAIR 70 43 37 NW9 30.08S LOS ANGELES CA CLOUDY 64 61 90 W5 29.91F FOG BOISE ID FAIR 62 52 69 SE3 30.05S SEATTLE WA CLOUDY 58 52 80 SW7 30.15S $$ *** WEATHER ACROSS MANITOBA...SASKATCHEWAN AND ONTARIO *** ***ONTARIO*** CITY SKY/WX TMP DP RH WIND PRES REMARKS GERALDTON MOCLDY 57 36 44 SW6 29.86F THUNDER BAY MOCLDY 50 50 100 W3 29.91S SIOUX LOOKOUT CLOUDY 64 61 88 VRB2 29.85R TORONTO PTCLDY 57 43 58 E3 29.96R BIG TROUT LK CLEAR 43 39 87 NE7 29.96R PICKLE LAKE NOT AVBL DRYDEN CLEAR 64 59 82 SW9 29.87S KENORA MOCLDY 68 59 73 W5 29.88S $$ *** MANITOBA*** CITY SKY/WX TMP DP RH WIND PRES REMARKS BRANDON MOCLDY 63 55 77 CALM 29.87S DAUPHIN CLEAR 68 57 68 SW6 29.81F ISLAND LAKE PTCLDY 59 50 72 E10 29.90R PILOT MOUND N/A 64 57 77 SE2 N/A THE PAS CLOUDY 64 61 88 NW5 29.81F THOMPSON MOCLDY 52 27 37 E8 29.92R WINNIPEG MOCLDY 64 59 82 S3 29.84S LYNN LAKE CLEAR 57 50 77 E12G17 29.86S CHURCHILL PTCLDY 43 39 87 W5 29.99S $$ ***SASKATCHEWAN*** CITY SKY/WX TMP DP RH WIND PRES REMARKS ESTEVAN PTCLDY 61 55 82 SE6 29.83F KINDERSLEY PTCLDY 61 52 72 SE13 29.77S LLOYDMINSTER MOCLDY 63 54 72 NE3 29.79S PRINCE ALBERT CLOUDY 66 57 72 E6 29.82F REGINA PTCLDY 61 54 77 SE9 29.82F YORKTON CLEAR 59 55 88 E3 29.82F N. BATTLEFORD MOCLDY 63 55 77 E7 29.79F LA RONGE CLOUDY 64 61 88 E6 29.81F SASKATOON PTCLDY 64 52 63 SE2 29.79F SWIFT CURRENT PTCLDY 61 52 72 E8 29.80F $$ NOTE: THESE ARE AUTOMATED STATIONS WITH LIMITED QUALITY CONTROL "FAIR" INDICATES FEW OR NO CLOUDS BELOW 12,000 FEET WITH NO SIGNIFICANT WEATHER AND/OR OBSTRUCTIONS TO VISIBILITY. SKY/WX - SKY CONDITION AND SIGNIFICANT WEATHER. TMP - AIR TEMPERATURE. DP - DEWPOINT TEMPERATURE. RH - RELATIVE HUMIDITY. PRES - PRESSURE. HX - HEAT INDEX. WCI - WIND CHILL INDEX. $ ASUS43 KFGF 221031 RWRFGF PRAIRIE TO PINES WEATHER ROUNDUP NATIONAL WEATHER SERVICE EASTERN NORTH DAKOTA/GRAND FORKS ND 500 AM CDT FRI JUN 22 2018 **SATELLITE DATA USED TO AUGMENT SKY COVER AT AUTOMATED STATIONS** ***** WEATHER ACROSS EASTERN NORTH DAKOTA ***** CITY SKY/WX TMP DP RH WIND PRES REMARKS GRAND FORKS FAIR 64 61 90 S3 29.86S GRAND FRKS AFB FAIR 62 59 90 SW3 29.87S DEVILS LAKE NOT AVBL FARGO FAIR 66 60 81 SE6 29.88F WAHPETON ARPT FAIR 64 59 82 CALM 29.91S $$ ***** WEATHER ACROSS CENTRAL AND WESTERN NORTH DAKOTA ***** CITY SKY/WX TMP DP RH WIND PRES REMARKS BISMARCK FAIR 57 54 89 E7 29.91S MINOT FAIR 62 54 74 CALM 29.87S JAMESTOWN FAIR 65 61 87 CALM 29.88F MINOT AFB FAIR 60 55 81 SW6 29.85F GARRISON N/A 58 54 86 CALM 29.88F WILLISTON FAIR 62 53 72 N3 29.82F DICKINSON FAIR 55 53 93 SE9 29.87F HETTINGER FAIR 56 53 90 E5 29.92F $$ ***** OTHER AIRPORT OBSERVATIONS IN OUR AREA ***** CITY SKY/WX TMP DP RH WIND PRES REMARKS WALHALLA FAIR 64 64 100 CALM 29.86S GRAFTON AIRPOR FAIR 63 61 94 SE5 29.88R VALLEY CITY AR FAIR 61 61 100 CALM 29.91S CANDO FAIR 64 64 100 CALM 29.91S CAVALIER APRT FAIR 61 61 100 CALM 29.86S GWINNER N/A 61 59 94 CALM 29.90S SHEYENNE NWR N/A 62 60 92 CALM 29.95 ROLLA FAIR 64 57 77 SW3 29.91S ***** THE ABOVE OBSERVATIONS ARE NON NWS ARE NOT QUALITY CONTROLLED AND MAY MIS-REPORT RAIN FOR SNOW... $$ ***** WEATHER ACROSS NORTHERN MINNESOTA ***** CITY SKY/WX TMP DP RH WIND PRES REMARKS FLAG ISLAND FAIR 70 63 78 CALM 29.87R WARROAD FAIR 66 63 88 SW5 29.89S ROSEAU FAIR 64 61 88 CALM 29.88S HALLOCK FAIR 63 61 94 CALM 29.86S THF RVR FALLS NOT AVBL BAUDETTE FAIR 63 59 87 CALM 29.89S WASKISH FAIR 61 57 88 CALM 29.91S CROOKSTON FAIR 64 61 88 S8 29.89R STEPHEN NDAWN N/A N/A N/A N/A SE3 N/A GREENBUSH NDAW N/A 61 59 94 SE2 N/A $$ ***** WEATHER ACROSS CENTRAL AND WEST MINNESOTA ***** CITY SKY/WX TMP DP RH WIND PRES REMARKS FOSSTON FAIR 61 57 88 S3 29.92S BEMIDJI FAIR 62 57 85 S3 29.93S PARK RAPIDS FAIR 62 57 83 CALM 29.94S ELBOW LAKE FAIR 64 54 71 SE5 29.92S WADENA FAIR 55 55 100 CALM 29.93F DETROIT LAKES FAIR 64 61 88 CALM 29.94S MOORHEAD FAIR 64 61 88 SE7 29.90S FERGUS FALLS FAIR 66 61 82 SE3 29.93S MORRIS MN FAIR 61 57 88 NE5 29.91R STAPLES FAIR 55 54 94 CALM 29.94S $$ ***** WEATHER ELSEWHERE ACROSS MINNESOTA ***** CITY SKY/WX TMP DP RH WIND PRES REMARKS DULUTH FAIR 50 46 86 CALM 29.94R INTRNTL FALLS FAIR 58 57 97 SW5 29.91S ELY FAIR 52 48 87 CALM 29.94S CLOQUET FAIR 48 45 87 N7 29.95S WHEATON FAIR 63 57 82 SE3 29.93R BRAINERD FAIR 54 50 86 CALM 29.94S HIBBING FAIR 46 45 96 CALM 29.95R ALEXANDRIA FAIR 62 54 74 E6 29.94F SAINT CLOUD FAIR 56 54 93 CALM 29.92S MINNEAPOLIS CLOUDY 64 63 96 CALM 29.90S $$ ***** WEATHER ACROSS SOUTH DAKOTA ***** CITY SKY/WX TMP DP RH WIND PRES REMARKS SIOUX FALLS MOCLDY 57 56 96 CALM 29.94F BROOKINGS NOT AVBL WATERTOWN FAIR 61 60 97 CALM 29.93S HURON FAIR 59 57 93 CALM 29.91F SISSETON N/A 67 59 75 W5 29.90S ABERDEEN FAIR 61 60 97 SE7 29.90F MITCHELL FAIR 63 58 83 SW6 29.92F PIERRE FAIR 57 57 100 E7 29.88F MOBRIDGE FAIR 59 55 87 E5 29.88F RAPID CITY FAIR 59 52 77 SE6 29.93R $$ ***** SOME WEATHER IN NEARBY STATES ***** CITY SKY/WX TMP DP RH WIND PRES REMARKS GLASGOW MT LGT RAIN 65 59 81 W7 29.80S GREAT FALLS MT FAIR 58 52 80 SW12 29.92S CHEYENNE WY MOCLDY 57 52 83 S17G24 30.07F SCOTTSBLUFF NE FAIR 56 55 97 E7 29.98F OMAHA NE CLOUDY 63 59 87 N9 29.87F DES MOINES IA CLOUDY 62 58 86 NE9 29.82R DAVENPORT IA CLOUDY 62 60 93 NE12 29.78S CHICAGO IL RAIN 61 58 90 NE14 29.76S FOG EAU CLAIRE WI FAIR 58 57 97 NE3 29.90R LA CROSSE WI FAIR 62 59 90 NW6 29.87R $$ ***** SOME NATIONAL WEATHER ***** CITY SKY/WX TMP DP RH WIND PRES REMARKS LA GUARDIA NY MOCLDY 68 62 81 E7 29.95R RALEIGH NC FAIR 71 71 100 CALM 29.80R ATLANTA GA MOCLDY 72 68 87 W10 29.89R NEW ORLEANS LA FAIR 78 77 96 SW6 29.92R OKLAHOMA CITY MOCLDY 71 56 58 NE7 29.86R ALBUQUERQUE NM FAIR 74 35 24 W5 30.03R SALT LAKE CITY FAIR 70 43 37 NW9 30.08S LOS ANGELES CA CLOUDY 64 61 90 W5 29.91F FOG BOISE ID FAIR 62 52 69 SE3 30.05S SEATTLE WA CLOUDY 58 52 80 SW7 30.15S $$ *** WEATHER ACROSS MANITOBA...SASKATCHEWAN AND ONTARIO *** ***ONTARIO*** CITY SKY/WX TMP DP RH WIND PRES REMARKS GERALDTON MOCLDY 57 36 44 SW6 29.86F THUNDER BAY MOCLDY 50 50 100 W3 29.91S SIOUX LOOKOUT CLOUDY 64 61 88 VRB2 29.85R TORONTO PTCLDY 57 43 58 E3 29.96R BIG TROUT LK CLEAR 43 39 87 NE7 29.96R PICKLE LAKE NOT AVBL DRYDEN CLEAR 64 59 82 SW9 29.87S KENORA MOCLDY 68 59 73 W5 29.88S $$ *** MANITOBA*** CITY SKY/WX TMP DP RH WIND PRES REMARKS BRANDON MOCLDY 63 55 77 CALM 29.87S DAUPHIN CLEAR 68 57 68 SW6 29.81F ISLAND LAKE PTCLDY 59 50 72 E10 29.90R PILOT MOUND N/A 64 57 77 SE2 N/A THE PAS CLOUDY 64 61 88 NW5 29.81F THOMPSON MOCLDY 52 27 37 E8 29.92R WINNIPEG MOCLDY 64 59 82 S3 29.84S LYNN LAKE CLEAR 57 50 77 E12G17 29.86S CHURCHILL PTCLDY 43 39 87 W5 29.99S $$ ***SASKATCHEWAN*** CITY SKY/WX TMP DP RH WIND PRES REMARKS ESTEVAN PTCLDY 61 55 82 SE6 29.83F KINDERSLEY PTCLDY 61 52 72 SE13 29.77S LLOYDMINSTER MOCLDY 63 54 72 NE3 29.79S PRINCE ALBERT CLOUDY 66 57 72 E6 29.82F REGINA PTCLDY 61 54 77 SE9 29.82F YORKTON CLEAR 59 55 88 E3 29.82F N. BATTLEFORD MOCLDY 63 55 77 E7 29.79F LA RONGE CLOUDY 64 61 88 E6 29.81F SASKATOON PTCLDY 64 52 63 SE2 29.79F SWIFT CURRENT PTCLDY 61 52 72 E8 29.80F $$ NOTE: THESE ARE AUTOMATED STATIONS WITH LIMITED QUALITY CONTROL "FAIR" INDICATES FEW OR NO CLOUDS BELOW 12,000 FEET WITH NO SIGNIFICANT WEATHER AND/OR OBSTRUCTIONS TO VISIBILITY. SKY/WX - SKY CONDITION AND SIGNIFICANT WEATHER. TMP - AIR TEMPERATURE. DP - DEWPOINT TEMPERATURE. RH - RELATIVE HUMIDITY. PRES - PRESSURE. HX - HEAT INDEX. WCI - WIND CHILL INDEX. $